[[{"header":{"parameterUnit":"m.s-1","parameterCategory":1,"la1":30.2991,"la2":30.254,"lo1":-89.0895,"lo2":-89.0444,"dy":0.0017,"dx":0.0017,"nx":28,"ny":28,"refTime":"2024-09-27T03:00:00:Z","depth":0,"parameterNumber":2,"parameterNumberName":"U-component_of_WINDS"},"data":[0,0,0,0,0,0,0,0,0,0,0,0,0,0,0,0,0,0,0,0,0,0,0,0,0,0,0,0,0,0,0,0,0,0,0,0,0,0,0,0,0,0,0,0,0,0,0,0,0,0,0,0,0,0,0,0,0,0,6.3813,6.3815,0,6.399,6.3992,6.3994,6.3942,6.3939,6.3935,6.3932,6.4113,6.4121,6.413,0,0,0,0,0,0,0,0,0,0,0,0,0,6.343,6.3437,6.3813,6.3815,6.3817,6.399,6.3992,6.3995,6.3943,6.3939,6.3934,6.393,6.4111,6.412,6.413,0,0,0,0,0,0,0,0,0,0,0,0,0,6.3601,6.344,6.3812,6.3812,6.3814,6.399,6.3993,6.3996,6.3944,6.3938,6.3933,6.3928,6.4107,6.4119,6.4132,6.4318,0,0,6.417,6.4175,0,0,0,0,0,0,0,0,6.3591,6.3615,6.381,6.3812,6.3815,6.3939,6.3924,6.4104,6.3945,6.3895,6.3931,6.3925,6.406,6.4076,6.4121,6.4327,6.4335,6.4171,6.4178,6.4183,6.4187,0,0,0,0,0,0,0,6.3579,6.3607,6.3883,6.3813,6.3816,6.3804,6.3822,6.3958,6.4006,6.3899,6.3895,6.3917,6.406,6.4109,6.4125,6.4337,6.417,6.4181,6.4189,6.4194,6.4707,6.4713,0,0,0,0,0,0,6.3566,6.3597,6.3877,6.3888,6.3687,6.3815,6.3835,6.3904,6.4004,6.4014,6.3921,6.3914,6.4091,6.411,6.4131,6.4357,6.4183,6.4195,6.4202,6.4701,6.4709,6.4715,0,0,0,0,0,0,6.3558,6.3591,6.387,6.3742,6.3777,6.3827,6.3905,6.3911,6.396,6.4021,6.403,6.3963,6.4087,6.4114,6.4273,6.4363,6.4201,6.4212,6.4694,6.4703,6.4712,6.4811,0,0,0,0,0,0,6.3547,6.3589,6.366,6.3744,6.3784,6.4009,6.3911,6.3918,6.3981,6.3973,6.4063,6.4072,6.4085,6.4254,6.4285,6.4377,6.4221,6.4686,6.4698,6.4709,6.4799,6.4822,6.4841,0,0,0,0,0,6.3534,6.368,6.3664,6.3698,6.3874,6.4014,6.4036,6.4048,6.3989,6.4061,6.4101,6.4069,6.4348,6.4271,6.4305,6.4402,6.468,6.4695,6.4708,6.479,6.4818,6.4841,0,0,0,0,0,0,6.3604,6.3691,6.3674,6.3852,6.3926,6.4005,6.4096,6.4077,6.4169,6.4158,6.4168,6.4189,6.4352,6.4393,6.4306,6.4589,6.4506,6.4527,6.4556,6.4583,6.4604,6.459,6.4232,0,0,0,0,0,6.3641,6.3747,6.3817,6.3968,6.4006,6.4045,6.4106,6.4109,6.4186,6.4217,6.4269,6.4345,6.445,6.4519,6.4618,6.4805,6.4825,6.4889,6.491,6.4927,6.4945,6.5049,6.5079,6.4761,6.4761,6.4761,0,0,6.3717,6.3777,6.3844,6.3983,6.4041,6.4152,6.4071,6.4191,6.4274,6.4235,6.4389,6.443,6.4516,6.469,6.4769,6.4729,6.5038,6.4945,6.4958,6.4967,6.5066,6.5096,6.5123,6.4771,6.4769,6.4767,0,0,6.3912,6.3968,6.41,6.416,6.4249,6.4275,6.4306,6.4389,6.4415,6.4569,6.4543,6.4642,6.4822,6.4885,6.494,6.5162,6.5137,6.5194,6.5304,6.5404,6.5429,6.5452,6.5532,6.556,6.5212,6.5213,6.5213,0,6.3995,6.4161,6.4171,6.4294,6.4357,6.4328,6.4462,6.452,6.4637,6.4681,6.4635,6.4862,6.4917,6.5106,6.5161,6.5206,6.5244,6.5184,6.5425,6.5447,6.5468,6.5545,6.5575,6.5219,6.5218,6.5218,6.5217,0,6.4259,6.4375,6.4471,6.4585,6.4659,6.4787,6.4817,6.4891,6.4888,6.4918,6.5077,6.5143,6.5256,6.5302,6.5299,6.5492,6.5464,6.5422,6.5338,6.5505,6.5577,6.5606,6.5228,6.5226,6.5224,6.5222,0,0,6.4503,6.4623,6.4658,6.471,6.4807,6.4897,6.5024,6.5136,6.5199,6.5281,6.5389,6.5543,6.5505,6.5568,6.5573,6.5662,6.5835,6.5608,6.561,6.5649,6.6052,6.6083,6.6117,6.5819,6.5824,6.5829,6.6045,0,6.4707,6.4931,6.4945,6.5148,6.5256,6.5231,6.5342,6.5414,6.5447,6.5543,6.5579,6.5688,6.5629,6.5667,6.5754,6.5795,6.5916,6.578,6.592,6.5925,6.5899,6.6155,6.6188,6.6389,6.6073,6.6078,6.6081,0,6.4975,6.5066,6.528,6.5364,6.5409,6.5509,6.5613,6.5705,6.5787,6.5804,6.5876,6.5869,6.6001,6.5913,6.6096,6.6003,6.6061,6.6091,6.6099,6.6112,6.6013,6.6175,6.6453,6.6483,6.6125,6.6122,6.6119,0,6.5132,6.5308,6.546,6.5505,6.5606,6.5677,6.5722,6.5798,6.5865,6.5957,6.6,6.6106,6.6163,6.6246,6.6268,6.6202,6.6451,6.6364,6.6469,6.6469,6.6523,6.6519,6.6814,6.656,6.656,6.6559,6.6558,0,6.5359,6.5491,6.5532,6.5625,6.5773,6.5788,6.5935,6.5975,6.6044,6.6145,6.613,6.6226,6.6249,6.6349,6.6368,6.6517,6.6543,6.6561,6.6564,6.6563,6.6561,6.6601,6.6588,6.6567,6.6565,6.6564,6.6562,0,6.5559,6.5592,6.5755,6.5838,6.5862,6.5967,6.6038,6.6128,6.6159,6.6288,6.6319,6.6368,6.6485,6.6516,6.6656,6.6668,6.6845,6.6835,6.6817,6.6817,6.6921,6.6911,6.7252,6.7298,6.7014,6.7016,6.7019,0,6.5701,6.5803,6.5897,6.5964,6.6012,6.612,6.6188,6.6208,6.628,6.6382,6.646,6.6575,6.6669,6.6858,6.6907,6.7014,6.7007,6.7119,6.7023,6.7019,6.701,6.7003,6.7014,6.7137,6.714,6.7143,6.7145,0,6.5951,6.5963,6.6062,6.6168,6.625,6.6334,6.6414,6.647,6.6501,6.6583,6.6703,6.6776,6.692,6.7035,6.7144,6.7191,6.7175,6.7175,6.7205,6.7204,6.719,6.72,6.6867,6.7167,6.7165,6.7163,6.7162,6.7161,6.6128,6.6217,6.6298,6.6409,6.6472,6.6548,6.6637,6.668,6.678,6.6899,6.6905,6.7036,6.7116,6.7261,6.7315,6.7418,6.7384,6.7428,6.7439,6.7449,6.7459,6.7174,6.7438,6.7437,6.7437,6.7436,6.7436,0,6.6377,6.6428,6.653,6.6644,6.6732,6.6708,6.6797,6.6872,6.6988,6.7065,6.7157,6.7297,6.7409,6.7467,6.7579,6.7651,6.7646,6.768,6.7674,6.7686,6.7482,6.7445,6.7682,6.7682,6.7682,6.7682,6.7682,6.7682,6.6517,6.6668,6.669,6.6872,6.6922,6.705,6.7103,6.7174,6.7235,6.7391,6.7485,6.7522,6.7592,6.7709,6.7812,6.7826,6.7868,6.7906,6.7917,6.7725,6.77,6.7676,6.7641,6.7915,6.7916,6.8112,6.8114,6.8115]},{"header":{"parameterUnit":"m.s-1","parameterCategory":1,"la1":30.2991,"la2":30.254,"lo1":-89.0895,"lo2":-89.0444,"dy":0.0017,"dx":0.0017,"nx":28,"ny":28,"refTime":"2024-09-27T03:00:00:Z","depth":0,"parameterNumber":3,"parameterNumberName":"V-component_of_WINDS"},"data":[0,0,0,0,0,0,0,0,0,0,0,0,0,0,0,0,0,0,0,0,0,0,0,0,0,0,0,0,0,0,0,0,0,0,0,0,0,0,0,0,0,0,0,0,0,0,0,0,0,0,0,0,0,0,0,0,0,0,-5.3677,-5.368,0,-5.3948,-5.3951,-5.3954,-5.3978,-5.3976,-5.3973,-5.397,-5.425,-5.426,-5.427,0,0,0,0,0,0,0,0,0,0,0,0,0,-5.3184,-5.3193,-5.3677,-5.368,-5.3684,-5.3947,-5.3951,-5.3955,-5.3979,-5.3975,-5.3972,-5.3969,-5.4246,-5.4258,-5.427,0,0,0,0,0,0,0,0,0,0,0,0,0,-5.3421,-5.3196,-5.3676,-5.3727,-5.3735,-5.3947,-5.3951,-5.3956,-5.398,-5.3975,-5.3971,-5.3967,-5.4242,-5.4257,-5.4272,-5.4452,0,0,-5.4319,-5.4325,0,0,0,0,0,0,0,0,-5.3408,-5.3439,-5.3717,-5.3724,-5.3733,-5.3925,-5.388,-5.4122,-5.3981,-5.3887,-5.397,-5.3965,-5.4145,-5.4168,-5.4229,-5.4465,-5.4477,-5.432,-5.4329,-5.4336,-5.434,0,0,0,0,0,0,0,-5.3391,-5.3428,-5.3784,-5.3721,-5.3731,-5.3738,-5.3767,-5.3926,-5.4037,-5.3895,-5.3897,-5.3929,-5.4149,-5.4214,-5.4235,-5.4481,-5.4319,-5.4333,-5.4342,-5.4348,-5.4882,-5.4887,0,0,0,0,0,0,-5.3365,-5.3414,-5.3776,-5.3792,-5.3556,-5.375,-5.3783,-5.3868,-5.4035,-5.4057,-5.3932,-5.3929,-5.419,-5.4218,-5.4245,-5.4469,-5.4336,-5.435,-5.4358,-5.4877,-5.4883,-5.4889,0,0,0,0,0,0,-5.3354,-5.3397,-5.3765,-5.3604,-5.3651,-5.3763,-5.3859,-5.3875,-5.394,-5.4064,-5.4084,-5.3978,-5.4188,-5.4224,-5.4401,-5.4479,-5.4357,-5.437,-5.4871,-5.4879,-5.4886,-5.4916,0,0,0,0,0,0,-5.334,-5.3393,-5.3461,-5.3605,-5.366,-5.3915,-5.3864,-5.3884,-5.3966,-5.3964,-5.4112,-5.4132,-5.4187,-5.4378,-5.4416,-5.4497,-5.4382,-5.4865,-5.4874,-5.4883,-5.4908,-5.4924,-5.4936,0,0,0,0,0,-5.3322,-5.3459,-5.3465,-5.3508,-5.3748,-5.3919,-5.3951,-5.401,-5.3972,-5.4043,-5.4122,-5.4127,-5.4464,-5.4396,-5.4439,-5.4526,-5.486,-5.4872,-5.4883,-5.4902,-5.4921,-5.4936,0,0,0,0,0,0,-5.3322,-5.3479,-5.3487,-5.3674,-5.3783,-5.3923,-5.4014,-5.4028,-5.415,-5.4144,-5.4213,-5.4247,-5.4421,-5.4491,-5.4413,-5.471,-5.4658,-5.4679,-5.4658,-5.4677,-5.469,-5.467,-5.4395,0,0,0,0,0,-5.3344,-5.3469,-5.36,-5.3753,-5.3807,-5.3901,-5.3978,-5.4015,-5.4131,-5.4177,-5.4269,-5.4382,-5.4514,-5.4599,-5.4727,-5.4918,-5.4952,-5.5,-5.5014,-5.5024,-5.5042,-5.515,-5.5174,-5.4926,-5.4926,-5.4926,0,0,-5.3391,-5.3492,-5.3566,-5.3755,-5.3844,-5.3973,-5.394,-5.4078,-5.4175,-5.4198,-5.4371,-5.4443,-5.4574,-5.476,-5.4846,-5.4824,-5.5118,-5.5039,-5.5047,-5.5059,-5.5164,-5.5188,-5.5209,-5.4934,-5.4932,-5.4931,0,0,-5.3542,-5.363,-5.3768,-5.3857,-5.3992,-5.4054,-5.4087,-5.4225,-5.4274,-5.4448,-5.4469,-5.4586,-5.4811,-5.4904,-5.498,-5.5168,-5.5178,-5.5208,-5.5281,-5.5386,-5.5406,-5.5423,-5.5492,-5.5515,-5.5224,-5.5224,-5.5224,0,-5.3583,-5.3778,-5.3837,-5.3975,-5.4059,-5.4085,-5.4226,-5.431,-5.448,-5.4538,-5.4509,-5.4793,-5.4883,-5.5091,-5.5137,-5.5198,-5.5239,-5.5191,-5.5398,-5.5416,-5.5434,-5.55,-5.5525,-5.5227,-5.5227,-5.5226,-5.5226,0,-5.3822,-5.3957,-5.4053,-5.4215,-5.4309,-5.4448,-5.453,-5.4618,-5.4647,-5.4712,-5.4891,-5.4999,-5.515,-5.5202,-5.5232,-5.5416,-5.5398,-5.5383,-5.5332,-5.5459,-5.5522,-5.5548,-5.5231,-5.523,-5.5229,-5.5229,0,0,-5.3982,-5.4176,-5.421,-5.4285,-5.4435,-5.4542,-5.4682,-5.4829,-5.4904,-5.502,-5.5141,-5.5331,-5.5319,-5.5406,-5.5446,-5.5538,-5.5682,-5.5512,-5.5516,-5.5541,-5.5894,-5.5905,-5.5933,-5.5689,-5.5694,-5.5698,-5.5883,0,-5.4151,-5.4401,-5.4459,-5.4674,-5.4801,-5.4828,-5.4951,-5.5058,-5.5123,-5.524,-5.5312,-5.5446,-5.5419,-5.5472,-5.5564,-5.5644,-5.5754,-5.5632,-5.5804,-5.5809,-5.5771,-5.5966,-5.5978,-5.6148,-5.5908,-5.5912,-5.5916,0,-5.4382,-5.4503,-5.473,-5.4866,-5.4921,-5.503,-5.517,-5.5282,-5.5404,-5.5445,-5.5543,-5.5574,-5.5723,-5.5664,-5.5871,-5.5787,-5.5861,-5.5911,-5.5919,-5.5939,-5.5871,-5.5992,-5.6203,-5.6229,-5.5955,-5.5952,-5.5949,0,-5.4477,-5.4697,-5.4862,-5.4925,-5.5086,-5.5163,-5.5234,-5.5352,-5.5437,-5.556,-5.5616,-5.5755,-5.5831,-5.5938,-5.6007,-5.5957,-5.621,-5.6156,-5.6249,-5.6248,-5.6302,-5.6298,-5.653,-5.6347,-5.6347,-5.6346,-5.6346,0,-5.466,-5.4799,-5.4907,-5.5008,-5.5165,-5.5231,-5.5385,-5.5456,-5.5561,-5.5678,-5.5711,-5.582,-5.5903,-5.6025,-5.608,-5.6244,-5.6278,-5.6317,-5.633,-5.6315,-5.631,-5.6365,-5.6355,-5.6353,-5.6352,-5.635,-5.6349,0,-5.4793,-5.4871,-5.5053,-5.5191,-5.5229,-5.5338,-5.5457,-5.5558,-5.5624,-5.5772,-5.581,-5.5914,-5.6059,-5.6138,-5.632,-5.6356,-5.6541,-5.6547,-5.65,-5.6506,-5.6595,-5.6586,-5.6872,-5.6913,-5.6701,-5.6703,-5.6705,0,-5.4906,-5.5013,-5.5163,-5.5243,-5.5315,-5.5444,-5.5531,-5.5601,-5.5691,-5.5839,-5.5922,-5.6068,-5.6189,-5.642,-5.6513,-5.6652,-5.6663,-5.6753,-5.6684,-5.6666,-5.6666,-5.666,-5.6672,-5.6765,-5.6767,-5.6769,-5.677,0,-5.5098,-5.5131,-5.5255,-5.5393,-5.5495,-5.5607,-5.5718,-5.5783,-5.5871,-5.597,-5.6118,-5.6212,-5.6398,-5.6544,-5.6691,-5.6766,-5.6784,-5.6791,-5.6821,-5.6807,-5.6776,-5.6796,-5.6534,-5.6785,-5.6783,-5.6782,-5.6781,-5.6781,-5.5226,-5.5323,-5.5444,-5.5581,-5.5671,-5.5774,-5.5876,-5.5955,-5.6079,-5.6235,-5.6269,-5.6426,-5.6547,-5.6746,-5.6825,-5.695,-5.6933,-5.6975,-5.6986,-5.6996,-5.7,-5.6754,-5.6977,-5.6977,-5.6977,-5.6976,-5.6976,0,-5.5421,-5.55,-5.5625,-5.5779,-5.5888,-5.5894,-5.6017,-5.6108,-5.6245,-5.6356,-5.6475,-5.6646,-5.6788,-5.6892,-5.7037,-5.7117,-5.7129,-5.7153,-5.7149,-5.7166,-5.7006,-5.6967,-5.7141,-5.7141,-5.7141,-5.7141,-5.7141,-5.7141,-5.5536,-5.5701,-5.5748,-5.596,-5.6038,-5.6191,-5.6262,-5.6358,-5.6447,-5.6636,-5.6754,-5.682,-5.6929,-5.7083,-5.7214,-5.7241,-5.7294,-5.7317,-5.7345,-5.7194,-5.7177,-5.716,-5.7124,-5.7327,-5.7328,-5.7495,-5.7496,-5.7497]}]]